This is the latest recevied weather packets stored in our database for station/object KI4BSX. If no packets are shown the sender has not sent any weather packets the latest 10 day(s).
| Time | Temp. | Humidity | Pressure | Rain* | Wind** | Luminosity | Snow |
|---|---|---|---|---|---|---|---|
| 1777493792 | 27.78° C | 65% | 1012.8 hPa | 0 mm | - | - | - |
| 1777493490 | 27.22° C | 65% | 1012.7 hPa | 0 mm | - | - | - |
| 1777493186 | 27.78° C | 65% | 1012.7 hPa | 0 mm | - | - | - |
| 1777492883 | 27.78° C | 65% | 1012.9 hPa | 0 mm | - | - | - |
| 1777492580 | 27.22° C | 66% | 1012.8 hPa | 0 mm | - | - | - |
| 1777492275 | 26.67° C | 67% | 1013 hPa | 0 mm | - | - | - |
| 1777491973 | 27.22° C | 67% | 1012.9 hPa | 0 mm | - | - | - |
| 1777491669 | 27.22° C | 68% | 1013.4 hPa | 0 mm | - | - | - |
| 1777491367 | 27.22° C | 69% | 1013.2 hPa | 0 mm | - | - | - |
| 1777491063 | 26.11° C | 69% | 1013.3 hPa | 0 mm | - | - | - |
| 1777490758 | 26.67° C | 69% | 1013.2 hPa | 0 mm | - | - | - |
| 1777490455 | 26.67° C | 69% | 1013.4 hPa | 0 mm | - | - | - |
| 1777490151 | 26.67° C | 69% | 1013.4 hPa | 0 mm | - | - | - |
| 1777489849 | 26.67° C | 68% | 1013.3 hPa | 0 mm | - | - | - |
| 1777489546 | 26.67° C | 68% | 1013.5 hPa | 0 mm | - | - | - |
| 1777489243 | 26.67° C | 69% | 1013.5 hPa | 0 mm | - | - | - |
| 1777488940 | 26.67° C | 69% | 1013.6 hPa | 0 mm | - | - | - |
| 1777488637 | 26.11° C | 71% | 1013.5 hPa | 0 mm | - | - | - |
| 1777488335 | 26.11° C | 71% | 1013.6 hPa | 0 mm | - | - | - |
| 1777488033 | 26.67° C | 72% | 1013.6 hPa | 0 mm | - | - | - |
| 1777487730 | 26.11° C | 72% | 1013.5 hPa | 0 mm | - | - | - |
| 1777487428 | 26.11° C | 72% | 1013.6 hPa | 0 mm | - | - | - |
| 1777487125 | 26.11° C | 73% | 1014 hPa | 0 mm | - | - | - |
| 1777486821 | 25.56° C | 75% | 1013.8 hPa | 0 mm | - | - | - |
| 1777486518 | 25° C | 75% | 1014.2 hPa | 0 mm | - | - | - |
* Rain latest hour (hover to see other rain measurements)
** Current wind speed in m/s (hover to see current wind gust speed)